星链-4673 (STARLINK-4673 )

导读 | 星芒AI

STARLINK-4673 是 SpaceX Starlink 项目中的一颗低轨通信卫星,属于该星座的众多组网卫星之一。该卫星旨在为全球用户提供高速互联网服务,尤其关注网络覆盖不足的地区。它运行在约 550 公里的轨道高度,采用先进的推进系统和激光通信技术,以提升连接效率和减少延迟。STARLINK-4673 的发射和运行有助于增强 Starlink 网络的稳定性和覆盖范围,支持包括个人用户、企业和政府在内的多种应用场景。

基本信息
目录编号:
53589
目录名称:
STARLINK-4673
国际标识:
2022-104B
轨道中心:
EARTH
卫星名称:
星链-4673
卫星全名:
星链-4673 (STARLINK-4673 )
卫星状态:
在轨 (已飞行1211 天)
发射日期:
2022-08-28 UTC
国别 :
美国 (US)
星等 :
--
轨道信息
数据来源 国际轨道数据
星历时间: 2025-12-21T11:01:21+0800
5小时前
查看轨道信息
半长轴: 6917.955km
偏心率: 0.0001383
轨道倾角: 53.216°
近地点辐角 88.836°
升交点赤经 236.858°
平近点角 271.279°
近地点: 538.861km
远地点: 540.775km
周期: 95.439分钟
每日圈数: 15.088159
详细信息
固有亮度:
5
最大亮度:
2.5
卫星平台:
Starlink v1.5
覆盖范围:
全球
运营商:
太空探索技术公司
运营商所在国:
美国
制造商(研发单位):
太空探索技术公司
制造商所在国:
美国
使用方式:
暂无
卫星简介
星链(Starlink)计划是由太空探索技术公司(SpaceX)提出的一个巨型低轨卫星互联网星座项目,计划在2019年至2024年间在太空搭建由约1.2万颗卫星组成的“星链”网络,其中1584颗将部署在地球上空550千米处的近地轨道,并从2020年开始工作。该卫星仍在工作。
2D轨道图
3D轨道图
轨道高度分析图
轨道倾角分析图
轨道综合分析图
查看轨道综合分析图